sat.trackr.live / text

‹ back to catalog

STARLINK-31604

NORAD 59214 · 2024-046P

PAYLOAD ACTIVE UNKNOWN

§ Identity

Operator
Country
US
Launch date
2024-03-11
Launch site
AFWTR
Launch vehicle
Mass (kg)
RCS (m²)

Purposes: comms

External: N2YO · Heavens-Above · Gunter

§ Orbital elements

Epoch: 2026-09-20T11:10:18.364512Z

Period
93.85 min
Inclination
53.1609°
Eccentricity
0.0001222
Mean motion
15.34403637 rev/d
Perigee alt
461.9 km
Apogee alt
463.5 km
Semi-major
6,840.8 km
B*
5.3355e-5
RAAN
326.1540°
Arg perigee
83.6109°
Mean anomaly
276.5033°
Rev number
14,292

§ Raw data

STARLINK-316041 59214U 24046P   26263.46549033  .00001427  00000+0  53355-4 0  99982 59214  53.1609 326.1540 0001222  83.6109 276.5033 15.34403637142922

JSON: /api/v1/satellites/59214 · /tle

For live sub-satellite position, see the globe view (requires WebGL).

§ Visibility from observer

Set your observer location to see the next 7 days of passes ≥ 10°. The values pass through the URL so the page stays shareable.

No JS? Fill the form by hand. The geolocation button needs JavaScript.